Weather History for KNUQ - June, 2013

Change the Weather History Date:

Wednesday, June 19, 2013

  Actual Average Record
Temperature  
Mean Temperature 64 °F 67 °F  
Max Temperature 73 °F 77 °F 96 °F (1981)
Min Temperature 55 °F 57 °F 49 °F (1964)
Degree Days  
Heating Degree Days 1    
Month to date heating degree days 11  
Since 1 June heating degree days 11  
Since 1 July heating degree days 2097  
Cooling Degree Days 0    
Month to date cooling degree days 32  
Year to date cooling degree days 106  
Since 1 June cooling degree days 32  
Growing Degree Days 14 (Base 50)    
Moisture  
Dew Point 46 °F    
Average Humidity 56    
Maximum Humidity 72    
Minimum Humidity 40    
Precipitation  
Precipitation 0.00 in 0.01 in 0.01 in (1951)
Month to date precipitation 0.00 0.09  
Year to date precipitation 1.79 9.62  
Since 1 July precipitation 9.56  
Sea Level Pressure  
Sea Level Pressure 30.06 in    
Wind  
Wind Speed 11 mph (NW)    
Max Wind Speed 24 mph    
Max Gust Speed 44 mph    
Visibility 10 miles    
Events      
T = Trace of Precipitation, MM = Missing Value Source: NWS Daily Summary

Daily Weather History Graph

Daily Weather History Graph

Search for Another Location

Airport or City:

Trip Planner

Search our weather history database for the weather conditions in past years. The results will help you decide how hot, cold, wet, or windy it might be!

Date:

Astronomy

Jun. 19, 2013 Rise Set
Actual Time 5:47 AM PDT 8:32 PM PDT
Civil Twilight 5:16 AM PDT 9:03 PM PDT
Nautical Twilight 4:37 AM PDT 9:42 PM PDT
Astronomical Twilight 3:53 AM PDT 10:25 PM PDT
Moon 4:34 PM PDT (6/19) 2:31 AM PDT (6/19)
Length of Visible Light 15h 46m
Length of Day
14h 44m
Waxing Gibbous, 81% of the Moon is Illuminated
Jun 19
Waxing Gibbous
Jun 23
Full
Jun 29
Last Quarter
Jul 8
New
Jul 15
First Quarter

Hourly Weather History & Observations

Time (PDT) Temp. Dew Point Humidity Pressure Visibility Wind Dir Wind Speed Gust Speed Precip Events Conditions
12:56 AM 57.9 °F 46.0 °F 65% 30.06 in 10.0 mi West 10.4 mph 17.3 mph N/A   Clear
1:56 AM 57.9 °F 45.0 °F 62% 30.05 in 10.0 mi West 8.1 mph 18.4 mph N/A   Clear
2:56 AM 57.0 °F 46.9 °F 69% 30.05 in 10.0 mi WNW 5.8 mph - N/A   Clear
3:56 AM 55.9 °F 46.9 °F 72% 30.05 in 10.0 mi NNW 5.8 mph - N/A   Clear
4:56 AM 55.9 °F 46.9 °F 72% 30.05 in 10.0 mi NW 4.6 mph - N/A   Clear
5:56 AM 55.9 °F 46.9 °F 72% 30.05 in 10.0 mi WNW 6.9 mph - N/A   Clear
6:56 AM 57.0 °F 48.0 °F 72% 30.07 in 10.0 mi WNW 5.8 mph - N/A   Clear
7:56 AM 59.0 °F 48.0 °F 67% 30.08 in 10.0 mi NW 8.1 mph - N/A   Clear
8:56 AM 62.1 °F 48.0 °F 60% 30.09 in 10.0 mi Variable 6.9 mph - N/A   Clear
9:56 AM 64.0 °F 48.0 °F 56% 30.08 in 10.0 mi North 9.2 mph - N/A   Clear
10:56 AM 66.0 °F 48.0 °F 52% 30.09 in 10.0 mi North 13.8 mph - N/A   Clear
11:56 AM 68.0 °F 48.9 °F 50% 30.08 in 10.0 mi North 18.4 mph - N/A   Clear
12:56 PM 70.0 °F 48.0 °F 46% 30.07 in 10.0 mi North 19.6 mph - N/A   Clear
1:56 PM 71.1 °F 46.0 °F 41% 30.06 in 10.0 mi North 20.7 mph 25.3 mph N/A   Clear
2:56 PM 72.0 °F 50.0 °F 46% 30.05 in 10.0 mi North 20.7 mph - N/A   Clear
3:56 PM 72.0 °F 50.0 °F 46% 30.04 in 10.0 mi NNW 19.6 mph 27.6 mph N/A   Clear
4:56 PM 71.1 °F 46.9 °F 42% 30.04 in 10.0 mi NNW 17.3 mph 23.0 mph N/A   Clear
5:56 PM 70.0 °F 45.0 °F 41% 30.03 in 10.0 mi NNW 12.7 mph 20.7 mph N/A   Clear
6:56 PM 68.0 °F 44.1 °F 42% 30.04 in 10.0 mi NNW 11.5 mph 19.6 mph N/A   Clear
7:56 PM 66.0 °F 44.1 °F 45% 30.05 in 10.0 mi NNW 8.1 mph - N/A   Clear
8:56 PM 61.0 °F 42.1 °F 50% 30.06 in 10.0 mi NW 4.6 mph - N/A   Clear
9:56 PM 61.0 °F 43.0 °F 52% 30.06 in 10.0 mi West 13.8 mph 19.6 mph N/A   Clear
10:56 PM 60.1 °F 44.1 °F 55% 30.06 in 10.0 mi NW 5.8 mph - N/A   Clear
11:56 PM 59.0 °F 45.0 °F 60% 30.05 in 10.0 mi NW 4.6 mph - N/A   Clear